CW4784 Weather Reports


Display with metric or nautical units.
time (UTC)temp
F
wind
direction
speed
MPH
gust
MPH
rain 1hr
in
rain 24hr
in
rain mn
in
humidity
%
barometer
mb
20260505124513 46 360 4.0 9.0 0.00 0.00 0.00 62 1013.2
20260505124007 46 360 3.0 9.0 0.00 0.00 0.00 62 1013.2
20260505123509 46 360 4.0 9.0 0.00 0.00 0.00 63 1013.2
20260505123019 45 360 2.0 4.0 0.00 0.00 0.00 65 1013.1
20260505122509 45 360 0.0 3.0 0.00 0.00 0.00 66 1013.0
20260505122004 45 360 0.0 4.0 0.00 0.00 0.00 66 1012.9
20260505121514 45 360 1.0 4.0 0.00 0.00 0.00 67 1012.9
20260505121005 45 360 1.0 3.0 0.00 0.00 0.00 67 1012.8
20260505120504 45 360 1.0 3.0 0.00 0.00 0.00 69 1012.7
20260505120023 45 360 0.0 2.0 0.00 0.00 0.00 69 1012.7
20260505115504 45 360 0.0 3.0 0.00 0.00 0.00 69 1012.6
20260505115009 45 360 1.0 3.0 0.00 0.00 0.00 69 1012.5
20260505114522 45 360 0.0 3.0 0.00 0.00 0.00 69 1012.5
20260505114006 45 360 0.0 4.0 0.00 0.00 0.00 69 1012.4
20260505113505 45 360 1.0 4.0 0.00 0.00 0.00 69 1012.3
20260505113012 44 360 2.0 4.0 0.00 0.00 0.00 69 1012.4
20260505112504 44 360 1.0 6.0 0.00 0.00 0.00 69 1012.3
20260505112006 44 360 2.0 8.0 0.00 0.00 0.00 69 1012.3
20260505111518 44 360 4.0 8.0 0.00 0.00 0.00 69 1012.3
20260505111004 44 360 4.0 5.0 0.00 0.00 0.00 69 1012.2
20260505110512 44 360 3.0 5.0 0.00 0.00 0.00 69 1012.3
20260505102008 44 360 5.0 8.0 0.00 0.00 0.00 68 1012.3
20260505101528 45 360 5.0 6.0 0.00 0.00 0.00 68 1012.4
20260505101006 45 360 3.0 5.0 0.00 0.00 0.00 68 1012.8
20260505100507 45 360 3.0 5.0 0.00 0.00 0.00 68 1012.7
20260505100039 45 360 3.0 5.0 0.00 0.00 0.00 68 1012.9
20260505095506 45 360 4.0 5.0 0.00 0.00 0.00 68 1012.8
20260505095011 45 360 3.0 5.0 0.00 0.00 0.00 67 1012.7
20260505094527 45 360 3.0 5.0 0.00 0.00 0.00 67 1012.7
20260505094009 45 360 3.0 5.0 0.00 0.00 0.00 67 1012.7
20260505093509 46 360 3.0 5.0 0.00 0.00 0.00 67 1012.6
20260505093024 46 360 3.0 5.0 0.00 0.00 0.00 66 1012.7
20260505092511 46 360 3.0 4.0 0.00 0.00 0.00 66 1012.5
20260505092006 46 360 2.0 5.0 0.00 0.00 0.00 66 1012.6
20260505091519 46 360 3.0 5.0 0.00 0.00 0.00 66 1012.5
20260505091008 46 360 2.0 4.0 0.00 0.00 0.00 66 1012.5
20260505090508 46 360 2.0 4.0 0.00 0.00 0.00 66 1012.7
20260505090017 46 360 2.0 4.0 0.00 0.00 0.00 66 1012.7
20260505085508 46 360 3.0 5.0 0.00 0.00 0.00 66 1012.7
20260505085007 47 360 3.0 6.0 0.00 0.00 0.00 66 1012.8
20260505084521 47 360 3.0 6.0 0.00 0.00 0.00 65 1012.8
20260505084010 47 360 4.0 6.0 0.00 0.00 0.00 65 1012.9
20260505083507 47 360 4.0 5.0 0.00 0.00 0.00 65 1012.8
20260505083025 47 360 3.0 6.0 0.00 0.00 0.00 64 1012.7
20260505082510 48 360 4.0 6.0 0.00 0.00 0.00 64 1012.7
20260505082012 48 360 3.0 5.0 0.00 0.00 0.00 63 1012.8
20260505081520 49 360 2.0 6.0 0.00 0.00 0.00 63 1013.0
20260505081010 49 360 3.0 6.0 0.00 0.00 0.00 63 1013.0
20260505080509 49 360 3.0 5.0 0.00 0.00 0.00 62 1013.1
20260505080017 49 360 2.0 6.0 0.00 0.00 0.00 62 1013.1
20260505075507 49 360 3.0 10.0 0.00 0.00 0.00 63 1013.1
20260505075011 49 360 6.0 10.0 0.00 0.00 0.00 63 1012.7
20260505074521 48 360 6.0 10.0 0.00 0.00 0.00 64 1012.7
20260505074012 48 360 4.0 10.0 0.00 0.00 0.00 65 1012.8
20260505073507 49 360 5.0 8.0 0.00 0.00 0.00 65 1012.8
20260505073032 49 360 4.0 5.0 0.00 0.00 0.00 65 1012.9
20260505072511 49 360 3.0 5.0 0.00 0.00 0.00 64 1013.0
20260505072010 49 360 3.0 6.0 0.00 0.00 0.00 64 1012.9
20260505071518 49 360 4.0 6.0 0.00 0.00 0.00 64 1012.9
20260505071003 49 360 3.0 8.0 0.00 0.00 0.00 64 1012.8
20260505070503 49 360 4.0 10.0 0.00 0.00 0.00 64 1012.8
20260505070005 50 360 5.0 10.0 0.00 0.00 0.00 64 1012.8
20260505065503 50 360 5.0 10.0 0.00 0.00 0.00 64 1012.9
20260505065003 50 360 6.0 10.0 0.00 0.00 0.00 64 1012.9
20260505064504 50 360 6.0 11.0 0.00 0.00 0.00 64 1012.9
20260505064002 50 360 7.0 11.0 0.00 0.00 0.00 64 1013.0
20260505063502 50 360 7.0 12.0 0.00 0.00 0.00 64 1013.1
20260505063004 49 360 5.0 12.0 0.00 0.00 0.00 65 1013.0
20260505062504 49 360 7.0 10.0 0.00 0.00 0.00 65 1012.8
20260505062006 49 360 6.0 10.0 0.00 0.00 0.00 65 1012.9
20260505061512 49 360 4.0 10.0 0.00 0.00 0.00 65 1012.9
20260505061003 49 360 5.0 9.0 0.00 0.00 0.00 66 1012.9
20260505060503 50 360 6.0 9.0 0.00 0.00 0.00 65 1012.8
20260505060005 50 360 5.0 8.0 0.00 0.00 0.00 64 1012.8
20260505055504 50 360 4.0 6.0 0.00 0.00 0.00 64 1012.8
20260505055004 50 360 4.0 7.0 0.00 0.00 0.00 63 1012.8
20260505054504 50 18 4.0 8.0 0.00 0.00 0.00 63 1012.7
20260505054007 51 17 4.0 8.0 0.00 0.00 0.00 62 1012.7
20260505053507 51 360 4.0 9.0 0.00 0.00 0.00 62 1012.5
20260505053004 51 360 5.0 9.0 0.00 0.00 0.00 61 1012.4
20260505052504 51 360 5.0 9.0 0.00 0.00 0.00 60 1012.5
20260505052006 51 360 6.0 10.0 0.00 0.00 0.00 59 1012.5
20260505051513 52 360 5.0 12.0 0.00 0.00 0.00 58 1012.5
20260505051006 52 360 6.0 12.0 0.00 0.00 0.00 58 1012.3
20260505050504 52 360 9.0 12.0 0.00 0.00 0.00 57 1012.3
20260505041508 55 360 9.0 14.0 0.00 0.00 0.00 50 1012.5
20260505041004 55 360 10.0 14.0 0.00 0.00 0.00 49 1012.7
20260505040506 55 360 8.0 13.0 0.00 0.00 0.00 49 1012.7
20260505040006 55 360 7.0 12.0 0.00 0.00 0.00 48 1012.6
20260505035508 55 360 5.0 15.0 0.00 0.00 0.00 48 1012.4
20260505035003 55 17 10.0 15.0 0.00 0.00 0.00 48 1012.3
20260505034506 56 17 8.0 14.0 0.00 0.00 0.00 47 1012.3
20260505034010 56 16 9.0 15.0 0.00 0.00 0.00 46 1012.2
20260505033503 56 360 11.0 17.0 0.00 0.00 0.00 46 1012.1
20260505033013 56 360 12.0 17.0 0.00 0.00 0.00 45 1011.9
20260505032505 57 9 11.0 16.0 0.00 0.00 0.00 44 1011.8
20260505032004 57 360 9.0 15.0 0.00 0.00 0.00 44 1011.7
20260505031507 57 11 10.0 15.0 0.00 0.00 0.00 43 1011.6
20260505031006 58 360 11.0 15.0 0.00 0.00 0.00 42 1011.4
20260505030505 58 17 8.0 12.0 0.00 0.00 0.00 41 1011.3
20260505030010 58 360 6.0 10.0 0.00 0.00 0.00 40 1011.1
20260505025503 59 360 4.0 11.0 0.00 0.00 0.00 40 1010.9
20260505025004 59 360 4.0 12.0 0.00 0.00 0.00 39 1010.7
20260505024507 59 360 7.0 14.0 0.00 0.00 0.00 39 1010.6
20260505024003 59 360 6.0 14.0 0.00 0.00 0.00 40 1010.4
20260505023502 59 360 7.0 14.0 0.00 0.00 0.00 39 1010.3
20260505023014 60 360 7.0 10.0 0.00 0.00 0.00 39 1010.2
20260505022506 60 360 3.0 9.0 0.00 0.00 0.00 39 1010.0
20260505022007 60 360 6.0 11.0 0.00 0.00 0.00 38 1010.0
20260505021505 60 360 7.0 11.0 0.00 0.00 0.00 37 1009.8
20260505021003 61 360 4.0 9.0 0.00 0.00 0.00 37 1009.7
20260505020503 61 360 4.0 9.0 0.00 0.00 0.00 37 1009.6
20260505020008 61 360 4.0 9.0 0.00 0.00 0.00 36 1009.6
20260505015506 62 360 4.0 9.0 0.00 0.00 0.00 36 1009.5
20260505015006 62 360 0.0 4.0 0.00 0.00 0.00 36 1009.5
20260505014515 62 360 0.0 11.0 0.00 0.00 0.00 35 1009.5
20260505014008 63 360 5.0 12.0 0.00 0.00 0.00 35 1009.2
20260505013503 63 360 7.0 13.0 0.00 0.00 0.00 31 1008.9
20260505013027 63 360 8.0 16.0 0.00 0.00 0.00 30 1008.7
20260505012502 64 360 8.0 19.0 0.00 0.00 0.00 29 1008.3
20260505012004 64 360 11.0 22.0 0.00 0.00 0.00 29 1008.0
20260505011509 65 360 13.0 22.0 0.00 0.00 0.00 28 1007.9
20260505011003 65 360 12.0 20.0 0.00 0.00 0.00 27 1007.7
20260505010505 66 360 10.0 21.0 0.00 0.00 0.00 26 1007.6
20260505010026 67 360 9.0 21.0 0.00 0.00 0.00 24 1007.6
20260505005503 67 360 4.0 9.0 0.00 0.00 0.00 24 1007.5
20260505005007 68 360 3.0 9.0 0.00 0.00 0.00 24 1007.6
20260505004514 68 360 2.0 10.0 0.00 0.00 0.00 23 1007.7
20260505004003 68 360 5.0 10.0 0.00 0.00 0.00 23 1007.7
20260505003507 69 360 6.0 10.0 0.00 0.00 0.00 23 1007.5
20260505003010 69 360 6.0 9.0 0.00 0.00 0.00 23 1007.6
20260505002504 69 360 5.0 9.0 0.00 0.00 0.00 23 1007.7
20260505002008 69 360 4.0 9.0 0.00 0.00 0.00 23 1007.7
20260505001508 70 360 4.0 9.0 0.00 0.00 0.00 22 1007.7
20260505001006 70 360 4.0 8.0 0.00 0.00 0.00 21 1007.5
20260505000505 70 360 2.0 6.0 0.00 0.00 0.00 20 1007.6
20260505000019 70 360 2.0 6.0 0.00 0.00 0.00 21 1007.7
20260504235507 70 360 1.0 3.0 0.00 0.00 0.00 21 1007.7
20260504235006 70 360 0.0 3.0 0.00 0.00 0.00 21 1007.7
20260504234517 70 360 0.0 3.0 0.00 0.00 0.00 20 1007.7
20260504234007 70 360 0.0 3.0 0.00 0.00 0.00 21 1007.7
20260504233506 70 360 1.0 8.0 0.00 0.00 0.00 21 1007.7
20260504233025 70 360 2.0 8.0 0.00 0.00 0.00 21 1007.8
20260504232508 70 360 2.0 8.0 0.00 0.00 0.00 20 1007.7
20260504232010 70 360 3.0 8.0 0.00 0.00 0.00 20 1007.8
20260504231510 70 360 2.0 5.0 0.00 0.00 0.00 20 1007.7
20260504231009 70 360 2.0 5.0 0.00 0.00 0.00 20 1007.7
20260504230508 70 360 2.0 6.0 0.00 0.00 0.00 20 1007.7
20260504230029 70 360 3.0 9.0 0.00 0.00 0.00 20 1007.7
20260504225506 71 360 5.0 9.0 0.00 0.00 0.00 21 1007.7
20260504225007 71 242 2.0 9.0 0.00 0.00 0.00 20 1007.7
20260504224514 71 311 1.0 9.0 0.00 0.00 0.00 20 1007.8
20260504224008 70 260 1.0 13.0 0.00 0.00 0.00 21 1007.9
20260504223510 71 243 6.0 13.0 0.00 0.00 0.00 21 1007.9
20260504223014 71 217 5.0 10.0 0.00 0.00 0.00 21 1007.9
20260504222507 71 272 7.0 11.0 0.00 0.00 0.00 20 1008.0
20260504222007 71 277 7.0 11.0 0.00 0.00 0.00 20 1008.0
20260504221520 70 314 3.0 10.0 0.00 0.00 0.00 21 1008.0
20260504221007 70 235 5.0 10.0 0.00 0.00 0.00 20 1008.1
20260504220508 70 239 6.0 10.0 0.00 0.00 0.00 21 1008.2
20260504220018 71 267 5.0 11.0 0.00 0.00 0.00 20 1008.3
20260504215512 72 271 5.0 11.0 0.00 0.00 0.00 19 1008.3
20260504215011 72 315 7.0 11.0 0.00 0.00 0.00 19 1008.4
20260504214523 71 292 5.0 9.0 0.00 0.00 0.00 22 1008.4
20260504214007 71 211 5.0 9.0 0.00 0.00 0.00 21 1008.4
20260504213507 70 216 6.0 16.0 0.00 0.00 0.00 21 1008.5
20260504213013 70 232 10.0 16.0 0.00 0.00 0.00 20 1008.7
20260504212508 71 233 9.0 16.0 0.00 0.00 0.00 21 1008.7
20260504212010 71 194 9.0 18.0 0.00 0.00 0.00 20 1008.7
20260504211514 71 267 8.0 18.0 0.00 0.00 0.00 20 1008.9
20260504211004 71 241 12.0 18.0 0.00 0.00 0.00 20 1009.0
20260504210509 71 213 10.0 20.0 0.00 0.00 0.00 20 1009.0
20260504210020 71 246 12.0 20.0 0.00 0.00 0.00 20 1009.0
20260504205510 71 226 9.0 18.0 0.00 0.00 0.00 21 1009.1
20260504205010 71 225 12.0 18.0 0.00 0.00 0.00 21 1009.2
20260504204519 71 279 9.0 17.0 0.00 0.00 0.00 19 1009.3
20260504204009 72 275 11.0 17.0 0.00 0.00 0.00 19 1009.3
20260504203509 72 240 6.0 22.0 0.00 0.00 0.00 19 1009.2
20260504203011 74 252 13.0 22.0 0.00 0.00 0.00 17 1009.2
20260504202504 74 327 11.0 17.0 0.00 0.00 0.00 17 1009.1
20260504202005 73 317 2.0 11.0 0.00 0.00 0.00 17 1009.3
20260504201510 72 221 3.0 11.0 0.00 0.00 0.00 17 1009.5
20260504201005 72 185 7.0 14.0 0.00 0.00 0.00 18 1009.4
20260504200505 71 259 8.0 18.0 0.00 0.00 0.00 18 1009.8
20260504200006 71 294 9.0 19.0 0.00 0.00 0.00 16 1009.8
20260504195506 72 288 13.0 19.0 0.00 0.00 0.00 18 1009.8
20260504195003 72 227 7.0 16.0 0.00 0.00 0.00 18 1009.8
20260504194505 75 259 7.0 13.0 0.00 0.00 0.00 16 1009.8
20260504194003 74 309 7.0 24.0 0.00 0.00 0.00 17 1009.8
20260504193504 73 277 8.0 24.0 0.00 0.00 0.00 16 1009.8
20260504193004 74 270 9.0 19.0 0.00 0.00 0.00 17 1009.8
20260504192503 73 329 4.0 17.0 0.00 0.00 0.00 16 1009.8
20260504192007 73 229 10.0 17.0 0.00 0.00 0.00 16 1010.0
20260504191505 73 243 5.0 15.0 0.00 0.00 0.00 17 1010.1
20260504191006 75 232 10.0 13.0 0.00 0.00 0.00 16 1010.1
20260504190504 74 279 6.0 13.0 0.00 0.00 0.00 17 1010.0
20260504190022 74 342 8.0 22.0 0.00 0.00 0.00 16 1010.0
20260504185504 74 300 9.0 22.0 0.00 0.00 0.00 16 1010.1
20260504185003 73 331 5.0 16.0 0.00 0.00 0.00 17 1010.2
20260504184508 73 322 9.0 16.0 0.00 0.00 0.00 17 1010.2
20260504184002 73 268 7.0 15.0 0.00 0.00 0.00 17 1010.4
20260504183502 74 300 11.0 17.0 0.00 0.00 0.00 17 1010.6
20260504183004 72 294 11.0 25.0 0.00 0.00 0.00 18 1010.6
20260504182503 71 298 15.0 25.0 0.00 0.00 0.00 16 1010.7
20260504182009 72 260 11.0 20.0 0.00 0.00 0.00 16 1010.7
20260504181508 72 329 13.0 19.0 0.00 0.00 0.00 18 1010.7
20260504181003 72 296 14.0 19.0 0.00 0.00 0.00 18 1010.9
20260504180507 72 344 13.0 19.0 0.00 0.00 0.00 17 1010.8
20260504180005 72 316 11.0 21.0 0.00 0.00 0.00 17 1010.9
20260504175504 72 327 13.0 23.0 0.00 0.00 0.00 17 1011.0
20260504175003 72 314 14.0 23.0 0.00 0.00 0.00 17 1011.0
20260504174504 71 313 10.0 21.0 0.00 0.00 0.00 18 1011.2
20260504174007 70 333 12.0 17.0 0.00 0.00 0.00 19 1011.2
20260504173506 70 315 11.0 25.0 0.00 0.00 0.00 18 1011.3
20260504173004 70 315 10.0 25.0 0.00 0.00 0.00 19 1011.4
20260504172502 71 298 14.0 25.0 0.00 0.00 0.00 18 1011.3
20260504172008 71 338 5.0 18.0 0.00 0.00 0.00 18 1011.4
20260504171508 71 341 12.0 18.0 0.00 0.00 0.00 19 1011.4
20260504171010 71 292 4.0 20.0 0.00 0.00 0.00 20 1011.4
20260504170506 72 338 13.0 20.0 0.00 0.00 0.00 18 1011.6
20260504151007 68 355 4.0 13.0 0.00 0.00 0.00 27 1012.4
20260504150510 67 35 5.0 13.0 0.00 0.00 0.00 26 1012.3
20260504141017 64 145 4.0 8.0 0.00 0.00 0.00 30 1012.3
20260504140507 64 111 4.0 9.0 0.00 0.00 0.00 31 1012.2
20260504130511 57 360 3.0 7.0 0.00 0.00 0.00 40 1012.1